Wetbulb
72.56 74.27 77.36 78.17 78.79 78.70 78.67 78.50 78.80 78.89 78.65 79.10 79.54 79.38 79.32 79.50 79.08 79.05 78.95 78.67 78.34 77.48 77.31 77.43 77.56 77.37 76.80 76.35 76.41 77.08 77.58 77.39 77.56 77.03 76.84 76.73 76.45 76.54 76.95 77.36 76.28 75.02 76.37
73.46 74.55 77.26 78.27 78.96 78.62 78.04 78.47 78.60 79.23 78.93 78.78 79.33 79.30 78.88 79.28 78.63 78.26 79.08 78.26 77.62 77.76 77.62 77.94 77.55 77.11 77.54 76.69 76.86 76.75 77.03 77.66 77.69 76.96 77.43 76.97 76.92 76.71 76.99 76.56 76.22 75.51 76.27
72.41 74.26 75.45 78.18 78.51 78.05 78.02 78.09 78.57 78.83 78.24 78.62 79.20 78.46 78.42 78.71 78.42 77.84 77.46 77.83 78.04 77.68 77.11 76.92 76.26 75.88 76.12 76.29 76.66 76.72 76.56 76.41 76.88 77.56 77.13 74.62 74.50 76.81 76.87 76.29 75.59 75.98 75.53
72.04 73.28 74.41 76.51 77.74 77.92 78.11 78.32 78.80 78.51 78.18 78.66 78.68 78.37 79.32 78.91 78.91 78.01 78.18 77.58 76.98 76.52 75.38 75.32 75.44 75.13 75.63 76.60 76.22 76.68 76.11 75.27 75.27 75.92 75.18 73.64 72.14 74.19 75.12 76.08 76.53 76.17 75.97
71.38 72.71 73.26 76.05 77.96 77.33 78.23 78.41 78.70 78.67 78.74 78.29 78.65 79.08 78.66 78.49 78.42 77.97 78.11 77.07 76.16 75.74 77.08 77.28 77.58 77.03 76.17 75.48 75.65 75.68 75.59 75.68 75.77 75.55 74.25 72.74 72.53 74.85 73.97 74.25 74.50 75.51 74.56
71.89 73.30 76.17 77.31 76.82 77.46 78.75 78.95 78.94 79.06 78.81 78.69 78.88 78.14 78.11 78.85 78.15 77.98 76.77 76.60 75.58 75.77 77.43 76.63 76.22 76.32 76.04 75.24 75.15 75.29 76.51 76.69 76.79 73.20 73.20 74.85 73.58 76.55 75.96 75.19 74.36 73.67 73.68
72.47 73.93 74.95 77.53 77.49 78.39 78.76 78.86 78.90 78.65 78.62 78.76 78.18 78.57 78.51 78.67 78.33 77.58 77.26 75.77 76.30 75.91 76.95 76.55 77.43 76.67 76.33 75.18 75.67 76.65 76.81 76.83 75.60 72.57 72.33 72.12 73.28 76.93 76.38 74.52 73.92 75.45 75.51
72.75 73.66 74.70 77.07 77.64 78.18 78.37 78.13 78.21 77.88 78.29 77.13 77.36 77.95 77.84 78.07 78.41 78.04 77.76 76.92 76.92 77.03 76.75 77.06 76.95 76.51 75.82 75.35 75.90 77.03 77.08 76.72 75.69 72.07 72.95 72.14 75.28 77.08 76.05 76.23 75.12 74.25 74.61
73.42 73.14 74.02 74.62 75.30 77.90 78.65 78.17 78.51 77.89 78.03 78.39 77.83 77.96 77.69 77.38 77.30 77.98 78.38 78.42 77.92 77.40 77.24 76.94 76.73 76.21 75.91 76.31 76.41 76.95 76.32 76.37 74.19 72.05 72.60 74.05 76.76 77.56 76.41 76.24 76.24 75.78 74.77
72.87 72.74 72.66 73.11 72.70 74.13 75.83 78.50 78.49 78.49 77.83 77.55 77.39 77.41 77.23 77.48 77.38 77.13 77.40 78.12 78.27 77.25 77.17 77.01 76.70 76.17 77.20 77.31 77.01 77.04 76.96 76.68 73.54 72.54 70.55 71.73 76.09 76.12 75.28 75.27 75.16 75.80 75.49
72.65 72.72 72.90 72.85 72.93 72.32 73.95 76.27 77.99 77.37 77.24 77.37 76.92 77.16 77.25 73.96 75.32 76.34 77.00 78.00 77.04 77.13 77.02 76.82 77.03 77.64 77.61 76.88 77.17 78.12 77.99 73.58 71.48 73.25 72.24 75.20 76.74 76.91 75.79 76.04 76.18 75.30 75.88
71.72 72.65 73.33 73.24 73.22 73.69 75.00 74.72 75.06 74.74 74.05 73.83 73.85 73.55 74.10 74.10 74.17 75.86 76.75 77.74 77.25 76.94 76.99 77.53 77.94 78.01 76.78 73.73 71.64 76.08 74.85 73.87 71.76 72.90 72.36 76.78 77.51 77.81 76.71 76.29 75.61 75.01 74.04
72.84 73.72 73.84 74.04 74.44 73.56 73.94 74.23 74.93 74.68 73.90 73.50 73.01 72.66 73.33 74.52 74.39 72.89 73.57 74.97 75.31 75.60 73.90 74.88 74.67 74.78 74.30 73.16 72.66 72.09 73.16 72.74 71.85 73.19 73.92 77.11 77.61 77.93 77.28 77.12 76.20 75.27 74.66
72.20 73.00 73.93 74.46 74.59 74.23 74.16 73.55 74.21 74.51 73.98 73.00 73.11 73.82 73.48 72.03 72.27 71.05 72.31 73.51 72.78 72.98 70.41 69.52 73.41 73.58 73.03 71.74 71.31 71.98 70.85 69.95 70.31 72.84 74.13 77.46 77.38 77.89 77.75 77.13 76.92 76.13 76.05
72.13 73.30 73.88 74.98 74.70 74.60 73.64 73.78 74.16 74.03 74.16 72.86 72.95 73.28 73.13 72.09 71.10 72.88 71.48 71.85 72.76 71.85 70.33 70.96 69.07 68.63 71.03 71.76 71.34 71.30 71.57 70.61 70.10 71.56 73.38 77.54 77.51 77.58 78.10 77.73 77.13 76.34 75.99
73.16 73.07 74.02 74.51 74.30 74.39 74.33 75.57 74.35 74.96 72.38 73.51 73.97 74.69 73.92 73.23 72.46 73.35 72.80 72.99 72.87 72.86 71.55 67.54 66.65 66.74 68.80 72.81 72.39 71.51 71.38 71.84 71.12 70.35 72.45 75.14 77.47 76.73 77.81 78.25 78.08 77.54 77.18
72.79 73.64 73.43 74.07 75.37 74.67 74.18 73.98 73.37 73.14 72.98 72.92 72.22 74.39 74.45 73.65 73.04 72.16 72.29 72.14 72.09 73.67 71.06 65.95 66.53 67.07 68.72 72.46 72.11 71.65 71.40 71.56 72.08 70.60 69.68 72.71 75.42 77.53 77.68 77.98 77.99 78.09 78.14
71.68 73.25 74.13 75.02 73.43 74.82 74.20 73.04 73.46 73.09 73.83 73.67 72.05 75.16 75.53 75.12 74.26 74.13 72.59 71.24 72.31 72.83 73.61 70.59 66.76 67.28 70.73 71.27 71.06 71.60 71.64 71.22 71.23 70.37 70.78 69.84 72.11 75.47 76.88 77.68 77.08 77.31 77.55
72.21 72.89 71.85 72.72 73.32 73.47 74.45 73.97 74.34 72.60 73.54 73.01 72.85 72.65 74.77 75.24 75.09 72.61 72.38 72.56 72.84 73.21 71.99 72.33 71.69 71.52 69.66 71.17 69.19 66.64 65.62 68.98 71.62 72.92 70.70 70.49 70.08 71.70 73.90 76.60 77.23 77.11 77.48
73.51 73.90 73.86 74.20 73.99 73.99 75.10 74.02 74.13 74.34 74.29 73.98 73.85 74.54 73.70 73.54 75.07 74.78 73.93 73.63 73.49 72.49 71.31 70.67 67.90 68.60 69.51 70.87 72.42 70.47 67.60 70.84 71.37 70.36 70.82 71.52 70.65 71.07 71.95 73.88 75.58 75.81 77.17
73.89 73.81 73.96 73.27 75.00 74.90 74.43 72.23 72.78 71.98 72.99 73.85 74.04 73.62 73.23 71.31 73.41 73.89 73.50 72.36 72.79 71.96 70.54 70.96 67.01 66.43 65.82 69.71 68.43 67.59 68.26 68.83 69.64 70.86 71.72 71.20 71.12 70.66 71.34 71.72 73.49 74.50 74.94
73.20 73.70 74.67 75.10 74.75 75.39 74.77 74.16 74.40 72.85 73.57 73.92 74.32 73.24 73.85 72.99 73.95 74.28 73.41 72.33 72.54 72.28 70.61 69.86 67.90 65.06 66.57 69.87 67.07 67.17 64.12 66.19 67.95 69.84 71.06 71.88 71.48 71.24 70.83 71.02 72.10 73.50 73.87
73.23 74.37 74.79 75.53 75.48 75.62 75.15 74.71 74.83 74.19 74.40 73.46 73.35 74.08 74.02 74.25 74.82 74.97 74.29 73.96 72.87 72.26 71.17 70.37 68.41 66.37 65.73 68.37 68.57 65.94 63.17 63.36 66.54 67.81 68.32 68.88 70.74 70.68 70.82 70.96 71.50 72.40 73.63
73.51 75.38 75.61 76.15 76.66 75.98 75.37 74.97 74.01 72.35 71.61 72.31 72.07 73.26 73.28 74.44 74.23 75.33 74.36 73.99 73.39 72.28 71.12 70.48 71.38 69.93 68.64 68.23 68.19 68.75 67.60 66.80 63.61 63.12 65.81 67.08 69.12 69.50 70.73 71.14 71.16 71.31 71.69
74.31 75.15 76.20 76.26 77.05 76.17 75.53 74.95 74.74 73.31 73.17 73.01 70.83 69.64 68.97 69.05 67.30 70.01 69.34 69.73 69.08 71.20 71.57 70.92 70.47 70.27 69.68 67.85 68.39 66.65 66.51 66.13 66.38 64.96 62.43 63.57 67.27 68.67 69.95 72.60 73.32 72.25 71.57
73.99 75.02 76.67 76.27 76.38 76.67 76.08 76.28 75.50 74.82 73.73 72.07 69.12 67.28 68.42 66.42 65.39 66.72 68.83 68.57 68.63 68.65 68.40 68.93 69.12 68.94 68.66 69.16 69.02 68.84 67.76 66.11 64.82 63.93 62.99 63.78 64.66 66.77 68.44 69.61 70.58 70.68 71.09
MSLP
1015.99 1015.79 1015.55 1015.55 1015.60 1015.67 1015.91 1016.19 1016.37 1016.46 1016.56 1016.61 1016.63 1016.76 1016.93 1017.14 1017.32 1017.47 1017.59 1017.71 1017.88 1017.98 1018.05 1018.04 1018.05 1018.03 1018.05 1018.28 1018.54 1018.58 1018.76 1018.70 1018.71 1018.79 1019.05 1019.27 1019.25 1019.37 1019.41 1019.44 1019.60 1019.81 1019.97
1015.57 1015.75 1015.64 1015.68 1015.69 1015.97 1016.36 1016.59 1016.77 1016.83 1017.00 1017.02 1017.11 1017.30 1017.38 1017.45 1017.58 1017.68 1017.76 1017.85 1018.01 1018.14 1018.22 1018.18 1018.29 1018.32 1018.31 1018.38 1018.61 1018.79 1018.91 1018.94 1018.93 1018.95 1019.16 1019.49 1019.49 1019.57 1019.54 1019.57 1019.79 1020.01 1020.09
1015.73 1015.70 1015.76 1015.85 1016.03 1016.37 1016.69 1016.90 1017.06 1017.14 1017.31 1017.32 1017.37 1017.54 1017.68 1017.69 1017.86 1017.99 1018.09 1018.16 1018.25 1018.33 1018.49 1018.53 1018.57 1018.64 1018.63 1018.64 1018.79 1018.93 1019.07 1019.21 1019.25 1019.20 1019.28 1019.60 1019.71 1019.79 1019.89 1019.91 1019.97 1020.16 1020.29
1015.64 1015.82 1016.09 1016.15 1016.44 1016.79 1017.03 1017.25 1017.25 1017.33 1017.55 1017.62 1017.71 1017.85 1017.95 1018.03 1018.11 1018.21 1018.32 1018.44 1018.56 1018.62 1018.72 1018.79 1018.83 1018.83 1018.82 1018.80 1018.95 1019.03 1019.17 1019.22 1019.35 1019.39 1019.31 1019.56 1019.70 1019.91 1020.07 1020.23 1020.21 1020.29 1020.50
1015.76 1016.02 1016.39 1016.53 1016.77 1017.06 1017.25 1017.45 1017.49 1017.62 1017.77 1017.86 1017.92 1018.13 1018.25 1018.34 1018.41 1018.38 1018.55 1018.72 1018.82 1018.91 1018.97 1018.99 1019.02 1019.01 1019.03 1018.98 1018.99 1019.10 1019.17 1019.17 1019.17 1019.15 1019.27 1019.54 1019.73 1019.84 1020.16 1020.25 1020.49 1020.41 1020.56
1015.85 1016.18 1016.48 1016.73 1017.04 1017.33 1017.46 1017.60 1017.74 1017.89 1018.02 1018.14 1018.24 1018.39 1018.41 1018.46 1018.58 1018.56 1018.75 1018.92 1019.06 1019.21 1019.26 1019.29 1019.39 1019.37 1019.37 1019.18 1019.09 1019.06 1019.17 1019.11 1018.95 1018.70 1019.07 1019.47 1019.58 1019.67 1019.97 1020.20 1020.39 1020.59 1020.59
1015.91 1016.36 1016.71 1016.91 1017.20 1017.45 1017.62 1017.84 1017.97 1018.07 1018.29 1018.41 1018.57 1018.68 1018.74 1018.70 1018.68 1018.85 1019.02 1019.23 1019.32 1019.41 1019.55 1019.49 1019.48 1019.54 1019.48 1019.39 1019.17 1019.07 1019.11 1019.06 1018.93 1019.13 1019.11 1019.56 1019.45 1019.55 1019.76 1020.08 1020.30 1020.50 1020.66
1016.01 1016.49 1016.87 1017.17 1017.42 1017.67 1017.85 1018.02 1018.23 1018.34 1018.53 1018.65 1018.81 1018.85 1018.89 1018.90 1018.96 1019.23 1019.37 1019.49 1019.54 1019.65 1019.76 1019.77 1019.75 1019.70 1019.61 1019.40 1019.19 1019.25 1019.25 1019.15 1019.19 1019.28 1018.94 1019.26 1019.42 1019.34 1019.57 1019.81 1020.05 1020.27 1020.47
1016.07 1016.70 1017.17 1017.46 1017.61 1017.81 1017.99 1018.29 1018.43 1018.55 1018.68 1018.76 1018.86 1018.96 1019.05 1019.22 1019.36 1019.37 1019.47 1019.64 1019.70 1019.84 1019.91 1019.84 1019.77 1019.75 1019.64 1019.49 1019.41 1019.26 1019.08 1018.94 1019.16 1019.24 1019.22 1019.33 1019.30 1019.25 1019.38 1019.67 1019.91 1020.02 1020.21
1016.25 1016.87 1017.37 1017.70 1017.85 1018.12 1018.31 1018.45 1018.63 1018.73 1018.77 1018.93 1018.99 1019.09 1019.30 1019.46 1019.55 1019.60 1019.65 1019.70 1019.72 1019.95 1020.08 1020.07 1019.99 1019.82 1019.70 1019.37 1019.37 1019.30 1018.89 1018.71 1018.80 1018.97 1019.18 1019.26 1019.24 1019.23 1019.26 1019.42 1019.75 1019.96 1020.07
1016.43 1016.83 1017.24 1017.73 1018.08 1018.32 1018.49 1018.65 1018.79 1018.92 1019.01 1019.00 1019.05 1019.18 1019.42 1019.61 1019.65 1019.61 1019.68 1019.79 1019.89 1019.91 1019.88 1019.87 1019.91 1019.89 1019.72 1019.41 1019.13 1019.17 1018.89 1018.93 1018.80 1018.73 1018.91 1019.10 1019.13 1019.05 1019.11 1019.21 1019.43 1019.73 1019.93
1016.47 1016.84 1017.08 1017.47 1017.94 1018.15 1018.32 1018.70 1018.92 1019.03 1019.16 1019.16 1019.16 1019.32 1019.42 1019.39 1019.62 1019.63 1019.59 1019.62 1019.72 1019.75 1019.75 1019.65 1019.63 1019.67 1019.64 1019.59 1019.24 1018.93 1018.86 1018.78 1018.81 1018.55 1018.75 1018.99 1018.94 1018.85 1018.82 1019.01 1019.21 1019.48 1019.70
1016.03 1016.50 1017.01 1017.19 1017.55 1017.80 1017.87 1018.30 1018.58 1018.81 1018.98 1019.02 1019.04 1019.14 1019.28 1019.28 1019.36 1019.65 1019.68 1019.69 1019.54 1019.67 1020.03 1019.83 1019.56 1019.51 1019.45 1019.51 1019.31 1018.71 1018.73 1018.61 1018.59 1018.07 1018.17 1018.41 1018.68 1018.61 1018.67 1018.81 1019.01 1019.24 1019.45
1015.90 1016.29 1016.69 1017.03 1017.39 1017.50 1017.77 1018.02 1018.13 1018.34 1018.51 1018.61 1018.63 1018.64 1018.90 1019.00 1019.44 1019.26 1019.35 1019.23 1019.37 1019.75 1019.84 1019.29 1019.81 1019.37 1019.22 1019.06 1018.93 1018.64 1018.37 1018.27 1018.54 1018.24 1018.25 1018.27 1018.20 1018.39 1018.42 1018.57 1018.73 1018.92 1019.13
1015.62 1016.09 1016.48 1016.77 1017.25 1017.24 1017.63 1017.79 1017.88 1018.10 1018.17 1018.04 1018.14 1018.23 1018.49 1018.81 1018.94 1018.97 1018.94 1018.89 1018.81 1019.19 1018.98 1019.02 1019.38 1019.00 1018.93 1018.71 1018.47 1018.33 1018.31 1017.98 1018.02 1018.20 1018.12 1018.13 1018.01 1018.14 1018.02 1018.17 1018.38 1018.51 1018.85
1015.23 1015.86 1016.19 1016.60 1016.67 1017.03 1017.45 1017.23 1017.45 1017.30 1017.64 1017.79 1017.99 1018.02 1018.27 1018.46 1018.73 1018.79 1018.70 1018.58 1018.34 1018.49 1019.07 1018.99 1018.26 1018.06 1018.31 1018.47 1018.27 1018.18 1018.11 1018.11 1017.84 1017.78 1017.71 1017.86 1017.74 1017.84 1017.73 1017.71 1018.03 1018.23 1018.38
1014.93 1015.53 1015.97 1016.25 1016.27 1016.63 1016.69 1016.72 1016.99 1017.29 1017.42 1017.25 1017.57 1017.79 1017.79 1018.01 1018.24 1018.31 1018.30 1018.37 1018.35 1018.06 1018.32 1018.26 1017.97 1018.09 1018.24 1018.03 1018.03 1017.82 1017.77 1017.67 1017.58 1017.32 1017.11 1017.39 1017.51 1017.33 1017.11 1017.27 1017.42 1017.65 1017.88
1014.56 1015.24 1015.65 1015.81 1016.14 1016.51 1016.78 1016.81 1017.01 1017.12 1017.38 1017.31 1017.38 1017.47 1017.57 1017.64 1017.71 1017.95 1017.99 1018.05 1017.88 1017.68 1017.65 1017.89 1017.99 1018.01 1018.23 1018.11 1017.87 1018.09 1018.00 1017.25 1017.31 1017.26 1016.67 1016.69 1016.87 1016.86 1016.82 1016.89 1016.87 1016.90 1017.24
1014.12 1014.85 1015.25 1015.59 1016.01 1016.38 1016.56 1016.85 1017.01 1017.14 1017.37 1017.07 1017.00 1017.31 1017.62 1017.63 1017.50 1017.67 1017.65 1017.65 1017.55 1017.52 1017.37 1017.95 1018.13 1018.12 1018.41 1018.11 1018.04 1017.93 1018.50 1018.93 1017.46 1016.76 1016.71 1016.33 1016.06 1016.06 1016.08 1016.06 1016.12 1016.25 1016.40
1013.91 1014.46 1014.94 1015.39 1015.79 1016.18 1016.55 1016.81 1017.10 1017.30 1017.21 1016.89 1017.01 1017.10 1016.76 1017.03 1017.32 1017.34 1017.46 1017.46 1017.37 1017.59 1017.73 1017.73 1018.13 1017.97 1018.10 1018.05 1017.92 1017.84 1017.72 1018.35 1016.89 1016.52 1016.38 1015.73 1015.54 1015.28 1015.33 1015.31 1015.34 1015.53 1015.73
1013.82 1014.33 1014.77 1015.21 1015.61 1016.04 1016.57 1017.05 1017.28 1017.45 1017.29 1017.06 1017.05 1016.87 1016.97 1017.01 1017.17 1016.98 1017.01 1017.08 1017.25 1017.59 1017.72 1017.62 1017.77 1017.87 1017.91 1017.80 1017.92 1018.03 1017.61 1017.25 1016.59 1015.89 1015.25 1014.95 1014.75 1014.54 1014.46 1014.42 1014.47 1014.55 1014.79
1013.67 1014.15 1014.63 1014.99 1015.37 1015.74 1016.18 1016.59 1016.84 1017.01 1017.09 1016.99 1016.66 1016.70 1016.83 1016.97 1016.92 1016.67 1016.68 1016.96 1016.97 1017.26 1017.38 1017.41 1017.62 1017.93 1017.81 1017.45 1017.77 1017.80 1016.99 1015.83 1015.51 1014.82 1014.52 1014.33 1013.96 1014.07 1013.78 1013.41 1013.35 1013.47 1013.56
1013.12 1013.70 1014.25 1014.69 1015.08 1015.44 1015.79 1016.18 1016.53 1016.74 1016.89 1016.85 1016.69 1016.74 1016.48 1016.55 1016.39 1016.36 1016.30 1016.34 1016.56 1016.69 1016.87 1016.96 1016.99 1017.31 1017.51 1017.05 1017.03 1017.34 1017.35 1016.99 1016.04 1014.21 1014.15 1014.56 1014.15 1013.79 1013.77 1013.17 1012.49 1012.65 1012.56
1012.26 1012.93 1013.57 1014.11 1014.65 1015.04 1015.37 1015.77 1016.36 1016.53 1016.78 1016.58 1016.29 1016.18 1016.12 1016.00 1016.13 1016.02 1015.93 1015.89 1015.90 1016.27 1016.48 1016.60 1016.65 1016.76 1016.99 1016.86 1016.69 1016.71 1016.55 1016.50 1016.35 1014.91 1013.96 1014.29 1013.50 1012.70 1012.77 1013.36 1013.05 1012.89 1012.21
1011.40 1012.19 1012.87 1013.48 1014.10 1014.53 1014.99 1015.23 1015.73 1016.07 1016.13 1016.28 1016.37 1016.32 1016.44 1016.31 1016.11 1016.06 1016.08 1016.08 1016.24 1016.29 1016.34 1016.34 1016.35 1016.36 1016.41 1016.55 1016.43 1016.40 1016.35 1016.18 1016.07 1015.83 1014.27 1013.03 1013.21 1012.35 1012.53 1013.23 1012.10 1013.35 1011.84
1010.73 1011.45 1012.25 1012.99 1013.55 1014.00 1014.43 1014.74 1015.09 1015.43 1015.77 1016.06 1016.33 1016.36 1016.36 1016.35 1016.33 1016.24 1016.17 1016.13 1016.12 1016.29 1016.31 1016.31 1016.29 1016.23 1016.14 1016.03 1015.88 1015.81 1015.77 1015.89 1015.65 1015.41 1014.89 1013.72 1012.95 1011.44 1011.79 1012.39 1012.17 1012.17 1011.63
Wind_Speed
2 4 11 15 16 16 18 16 17 17 18 18 18 17 16 15 15 14 14 13 14 13 14 15 14 14 15 13 12 13 12 14 15 17 16 14 12 9 10 16 15 12 14
7 3 11 14 17 17 17 16 15 16 15 16 16 16 15 15 14 13 12 14 14 15 14 15 14 13 13 11 10 11 11 11 12 16 16 14 15 15 15 16 15 11 13
9 8 10 14 16 17 16 15 14 15 14 14 15 14 14 14 13 14 14 14 15 14 13 13 12 11 11 10 10 10 9 7 8 13 16 6 8 13 13 14 14 12 12
10 6 9 14 16 16 16 14 13 14 13 13 13 13 12 13 13 14 13 14 13 13 13 13 12 11 9 8 7 8 6 5 4 8 3 6 9 13 11 12 13 14 13
11 7 10 14 14 16 15 14 13 13 12 11 12 12 12 12 12 14 13 13 12 12 12 12 12 11 7 5 4 4 3 3 4 6 5 5 5 11 11 11 9 10 12
11 11 12 14 15 14 14 13 13 11 11 10 11 11 11 11 12 12 12 12 12 11 11 12 11 10 7 3 1 2 3 5 5 7 10 10 7 13 11 11 12 10 11
12 11 11 14 14 13 13 12 11 10 10 11 11 12 11 11 11 11 11 11 11 10 9 11 10 9 5 1 5 6 7 9 5 4 9 7 7 13 13 12 11 11 8
14 11 11 14 14 14 13 12 10 9 10 12 10 10 10 10 10 10 8 10 9 9 8 8 7 6 4 3 5 6 8 8 7 1 10 7 10 14 13 12 12 11 9
14 11 9 8 12 15 13 12 10 10 9 10 9 8 8 8 8 9 8 7 9 8 8 7 6 5 5 6 6 6 7 8 1 3 6 5 13 15 14 12 11 11 10
13 11 7 6 6 5 6 11 10 8 9 8 8 7 6 7 7 6 7 7 8 8 7 6 6 6 8 8 9 9 12 10 4 4 5 5 14 15 15 13 11 10 9
11 12 10 7 6 6 6 7 8 9 8 7 6 6 5 3 4 7 8 8 8 8 8 8 9 9 10 12 12 11 14 3 3 2 5 13 16 16 16 14 12 11 10
12 12 10 10 8 8 7 6 5 6 4 4 5 6 4 5 5 7 8 10 9 8 8 9 10 11 11 4 5 9 5 5 3 4 4 15 16 17 17 15 13 13 13
14 10 11 9 9 10 8 7 5 4 4 5 7 6 4 3 4 1 2 3 4 6 2 5 5 4 5 4 7 3 5 5 3 2 9 19 17 17 17 17 15 15 15
14 13 11 9 7 6 6 6 6 5 6 6 6 7 5 2 3 4 3 5 4 3 2 4 4 5 7 6 5 4 6 4 2 2 4 19 18 17 18 17 17 17 16
14 13 11 12 10 7 5 4 5 6 6 8 7 6 4 3 3 2 3 4 5 5 4 2 5 3 1 6 5 5 6 7 3 3 4 19 16 18 18 18 18 18 18
16 13 10 10 8 7 6 5 6 9 5 4 5 6 6 5 3 2 0 3 4 4 3 5 4 4 2 5 5 5 6 7 7 5 4 6 18 19 17 18 18 19 19
13 14 11 9 8 6 4 2 0 1 2 1 4 7 8 6 5 5 3 3 4 4 6 4 4 2 5 5 5 5 5 7 9 7 4 5 8 19 18 18 19 20 20
13 14 12 9 8 7 5 3 1 2 3 2 2 4 5 7 7 6 4 4 5 4 3 5 3 4 4 5 3 5 6 5 6 9 7 6 5 6 12 18 19 20 20
11 12 9 8 10 8 6 3 1 3 2 3 2 2 2 5 6 4 4 4 5 4 3 3 2 2 2 2 2 4 9 13 9 6 7 8 10 7 6 14 20 20 21
11 10 8 8 9 8 6 4 2 1 4 4 2 3 3 2 4 5 4 4 3 4 3 2 1 2 1 3 1 3 8 17 6 6 9 10 8 11 7 10 9 11 21
10 9 8 8 8 5 3 3 3 4 3 3 2 2 5 4 7 4 4 4 4 3 4 5 1 1 3 1 2 3 6 8 7 6 9 10 11 9 10 9 7 7 9
12 10 8 8 8 5 4 4 3 3 3 3 3 5 6 6 9 6 5 5 6 3 4 5 3 2 3 4 3 2 4 5 4 7 8 10 14 7 11 12 11 11 10
14 13 11 9 10 7 8 3 2 1 2 1 3 3 6 9 7 7 7 6 5 4 4 5 4 5 3 3 6 4 2 4 4 3 6 4 6 3 7 10 9 12 12
15 14 13 11 11 9 9 5 6 4 4 4 4 3 3 5 5 7 7 6 5 2 3 3 3 4 4 5 1 5 6 4 5 10 6 2 6 4 14 4 9 12 14
16 14 13 13 11 10 9 8 6 5 4 2 2 4 1 1 3 6 6 6 4 3 4 4 5 4 2 3 3 2 4 4 6 8 11 8 4 6 4 5 6 15 12
14 16 13 14 11 9 10 9 8 6 5 3 1 1 2 2 3 4 3 2 1 2 3 3 4 5 5 4 4 4 4 4 3 5 7 11 13 13 9 7 6 6 4
Wind_Direction
97 138 110 106 106 98 96 91 87 84 78 75 74 77 84 85 91 96 96 94 92 96 98 99 101 97 92 93 93 99 99 100 98 95 91 84 85 89 123 107 102 100 99
130 141 118 114 105 102 102 98 94 92 89 83 79 80 87 86 88 91 96 95 96 98 99 96 93 94 94 100 97 94 97 104 106 111 102 92 92 89 79 100 99 96 98
131 126 123 111 105 107 107 106 105 98 95 86 86 90 92 92 94 96 97 99 101 100 99 99 99 98 102 100 100 98 100 108 119 130 112 102 94 92 90 101 103 102 104
141 129 120 112 108 110 110 108 107 104 101 95 98 97 96 97 100 101 105 102 103 108 109 108 109 109 112 106 101 113 117 124 148 166 141 133 108 102 106 103 108 112 107
138 140 131 123 117 115 114 111 107 106 105 106 106 104 101 102 106 106 110 105 108 113 115 120 114 115 109 103 103 96 127 171 219 217 200 138 125 117 117 118 117 128 116
146 126 137 132 124 119 114 112 113 117 111 109 104 105 107 107 109 108 109 112 116 118 119 112 114 111 112 79 44 21 347 322 345 94 111 133 131 131 133 123 123 121 126
124 134 139 137 134 124 119 118 118 117 119 111 115 114 108 111 109 109 112 118 123 125 125 126 127 131 140 301 312 326 350 350 341 175 122 130 134 135 137 135 134 135 135
129 137 141 141 138 133 132 121 123 125 123 124 126 118 121 115 115 119 126 131 133 135 138 143 137 149 177 227 275 321 336 337 360 220 131 140 157 149 146 150 145 147 152
127 131 129 141 146 145 134 137 132 134 132 134 136 134 123 117 122 133 133 132 136 146 161 166 170 191 222 245 268 291 291 291 291 134 151 153 161 151 150 149 155 160 163
128 130 135 147 138 133 143 147 142 142 143 150 154 150 145 146 149 154 147 160 160 166 181 198 207 221 242 251 263 268 267 272 288 180 166 174 168 163 160 161 168 178 174
140 143 145 144 154 152 146 162 160 162 162 171 187 185 182 191 188 187 188 181 182 189 199 214 228 237 249 258 264 263 272 271 189 222 167 176 176 171 167 172 176 180 186
141 149 154 163 165 159 159 155 169 187 186 208 221 211 208 214 191 207 196 188 201 210 218 230 232 239 255 274 283 264 262 269 291 201 162 186 188 180 175 179 185 190 194
149 152 158 166 169 176 165 174 181 185 191 208 227 218 201 223 192 201 169 198 200 223 295 281 264 251 254 246 280 231 244 255 255 149 175 190 197 187 185 183 189 196 200
158 160 171 152 173 193 166 180 187 186 199 205 214 209 189 193 191 223 163 214 172 140 186 240 284 251 242 247 265 287 277 250 183 202 195 198 192 196 193 189 195 201 206
158 162 161 161 183 196 178 184 184 207 207 207 201 200 187 200 226 254 240 216 186 173 200 214 218 190 311 255 257 274 302 301 289 216 192 211 198 205 196 195 203 205 210
158 163 162 160 173 184 198 172 194 198 205 200 191 195 191 197 203 198 240 273 287 192 145 207 214 220 288 283 259 244 255 287 287 254 206 217 208 210 203 200 208 212 212
143 162 163 159 170 168 168 146 350 146 350 278 165 195 196 189 205 217 226 249 259 275 173 220 233 179 225 251 261 240 236 249 277 271 257 197 222 211 205 206 207 216 216
148 157 169 162 166 164 175 192 277 338 349 285 345 185 185 198 205 197 217 266 276 292 241 207 198 234 239 232 250 320 289 243 251 272 274 263 204 220 220 215 216 216 218
157 154 171 160 167 170 182 158 243 273 288 282 311 23 153 234 214 221 221 244 258 270 300 10 300 336 317 298 93 6 315 308 270 271 271 258 248 223 204 217 217 219 218
155 153 167 152 163 170 161 166 192 246 256 250 268 107 319 105 274 201 231 246 269 297 342 297 166 310 200 288 299 183 225 261 235 213 247 262 251 238 212 212 210 221 221
156 155 162 155 162 151 146 158 200 212 238 257 181 205 266 281 279 272 243 257 275 279 263 281 278 296 298 233 347 231 219 248 257 245 240 244 256 233 227 208 202 204 216
168 168 166 166 169 169 157 182 175 173 218 214 207 239 213 229 248 244 235 246 253 239 247 265 207 250 240 185 210 185 309 307 273 245 235 236 240 246 240 226 211 206 205
170 173 177 175 177 176 187 170 201 207 256 215 244 217 219 218 225 233 235 237 237 222 230 247 232 200 253 267 195 178 289 236 296 268 299 296 290 307 269 249 211 216 208
176 175 176 181 175 187 191 176 185 188 201 225 224 205 197 217 264 259 242 250 255 261 280 262 231 224 196 262 302 221 238 226 252 292 248 234 275 285 282 260 260 249 226
172 178 179 182 173 184 190 183 197 198 202 154 103 90 168 329 31 72 77 56 33 352 307 303 315 301 250 254 235 241 240 249 248 249 283 286 209 236 254 236 217 273 240
173 178 174 178 185 176 188 193 190 193 170 133 99 62 22 20 8 42 53 58 307 318 339 322 314 312 302 292 278 262 247 262 228 229 257 272 278 278 257 204 206 245 280